星链-30817 (STARLINK-30817 )

导读

STARLINK-30817是美国太空探索技术公司SpaceX星链卫星互联网项目的卫星,于2023年11月8日发射入轨,属于星链低轨星座组网卫星。它依托近地轨道部署,为全球提供高速低延迟互联网覆盖,服务包括偏远地区联网、海事航空通信等场景,是星链大规模星座组网建设中的一环,助力美国构建低轨卫星通信网络。

Basic Information
目录编号:
58238
目录名称:
STARLINK-30817
国际标识:
2023-171J
轨道中心:
EARTH
卫星名称:
星链-30817
卫星全名:
星链-30817 (STARLINK-30817 )
卫星状态:
在轨 (已飞行1038 天)
发射日期:
2023-11-08 UTC
国别 :
美国 (US)
星等 :
--
This satellite is enrolled in the Space Conjunction Data Service (SCDS) and the current flight risk assessment level is: High Risk
Orbit Information
数据来源 国际轨道数据 AOE轨道数据
星历时间 2026-09-11T12:53:12+0800
12小时前
查看轨道信息
2026-09-10T08:00:00+0800
1天前
查看轨道信息
半长轴 6861.214km 6861.233km
偏心率 0.0001301 0.000109
轨道倾角 43.003° 43.000°
近地点辐角 269.211° 257.401°
升交点赤经 317.789° 324.589°
平近点角 90.860° 315.889°
近地点 482.184km 482.348km
远地点 483.97km 483.844km
周期 94.267分钟 94.268分钟
每日圈数 15.275709 15.275645
Detailed Information
固有亮度:
5
最大亮度:
0.3
卫星平台:
Starlink v2.0 mini
覆盖范围:
全球
运营商:
太空探索技术公司
运营商所在国:
美国
制造商(研发单位):
太空探索技术公司
制造商所在国:
美国
使用方式:
暂无
Satellite Introduction
星链(Starlink)计划是由太空探索技术公司(SpaceX)提出的一个巨型低轨卫星互联网星座项目,计划在2019年至2024年间在太空搭建由约1.2万颗卫星组成的“星链”网络,其中1584颗将部署在地球上空550千米处的近地轨道,并从2020年开始工作。该卫星仍在工作。
2D Orbit Map
3D Orbit Map
Orbit Altitude Analysis Chart
Orbit Inclination Analysis Chart
Orbit Comprehensive Analysis Chart
View Comprehensive Chart
Conjunction Data List
Event ID Objects TCA Miss Dist (km) Collision Risk Probability Collision Risk Index (CRI) Action
CDM_260911-201605-823806-686322
2026-09-11T
20:16:56+0000
0.286 km
中距离
3.410315E-4 高风险 0.86
CDM_260912-045405-823806-686322
2026-09-12T
04:54:47+0000
0.354 km
远距离
2.332195E-4 高风险 0.82
CDM_260912-032005-823806-686322
2026-09-12T
03:20:37+0000
1.939 km
极远距离
1.58012E-6 低风险 0.39
CDM_260911-184205-823806-686323
2026-09-11T
18:42:47+0000
2.023 km
极远距离
1.427472E-6 低风险 0.38
CDM_260911-215105-823806-686322
2026-09-11T
21:51:05+0000
2.032 km
极远距离
1.411667E-6 低风险 0.38
CDM_260906-061605-823806-187223
OBJECT D (61872)
2026-09-06T
06:16:12+0000
2.639 km
极远距离
1.083826E-6 低风险 0.36
CDM_260912-062805-823806-686322
2026-09-12T
06:28:56+0000
2.523 km
极远距离
9.239016E-7 极低风险 0.34
Miss Distance Evolution Trend with All Objects
Collision Probability Evolution Trend with All Objects